Regional Weather Roundup
Issued by NWS Sioux Falls, SD

Home | Current Version | Previous Version | Graphics & Text | Print | Product List | Glossary On
Versions: 1 2 3 4 5 6 7 8 9 10 11 12 13 14 15 16 17 18 19 20 21 22 23 24 25 26 27 28 29 30 31 32 33 34 35 36 37 38 39 40 41 42 43 44 45 46 47 48 49 50
000
ASUS43 KFSD 221410
RWRFSD

WEATHER ROUNDUP FOR SE SOUTH DAKOTA/SW MINNESOTA/NW IOWA
NATIONAL WEATHER SERVICE SIOUX FALLS SD
800 AM CST MON DEC 22 2014

NOTE: "FAIR" INDICATES FEW OR NO CLOUDS BELOW 12,000 FEET WITH NO
SIGNIFICANT WEATHER AND OR OBSTRUCTIONS TO VISIBILITY.


SDZ038>040-050-052>070-221500-
SOUTHEAST SOUTH DAKOTA

CITY           SKY/WX    TMP DP  RH WIND       PRES   REMARKS
CHAMBERLAIN    DRIZZLE   34  33  99 W7        29.45S WCI  28
HURON          CLOUDY    29  27  92 NW6       29.44S WCI  23
MADISON        LGT RAIN  36  36 100 S8        29.43S
MITCHELL       CLOUDY    34  31  88 W7        29.45S WCI  28
SIOUX FALLS    LGT RAIN  40  39  97 S10       29.45F
WINNER         CLOUDY    38  35  89 W14       29.48S
YANKTON        CLOUDY    37  36  93 SW5       29.47S
$$

MNZ071-072-080-081-089-090-097-098-221500-
SOUTHWEST MINNESOTA

CITY           SKY/WX    TMP DP  RH WIND       PRES   REMARKS
FAIRMONT       CLOUDY    37  34  87 SE21G26   29.58S
JACKSON        DRIZZLE   37  36  93 SE14      29.55F
LUVERNE        LGT RAIN  41  37  87 SE14      29.48S
MARSHALL       CLOUDY    37  36  93 SE12      29.50F
MONTEVIDEO     DRIZZLE   37  37 100 S12       29.52F
PIPESTONE      DRIZZLE   37  37 100 S12       29.46S
REDWOOD FALLS  CLOUDY    39  38  96 SE18      29.55S FOG
TRACY          LGT RAIN  39  38  97 S12G17    29.51S
WINDOM         DRIZZLE   39  37  93 SE12      29.54S
WORTHINGTON    CLOUDY    37 -11  12 SE15G22   29.51F
$$

IAZ001>003-012>014-020>022-031-032-NEZ013-014-SDZ071-221500-
NORTHWEST IOWA

CITY           SKY/WX    TMP DP  RH WIND       PRES   REMARKS
CHEROKEE       DRIZZLE   39  39 100 SE13G21   29.53S
DENISON        MIX PCPN  39  39 100 S13G22    29.53S
ESTHERVILLE    MIX PCPN  37  37 100 SE18G26   29.56S VSB 1
LE MARS        CLOUDY    41  41 100 SE10      29.50S FOG
ORANGE CITY    LGT RAIN  41  39  93 S10       29.49S
SHELDON        MIX PCPN  39  39 100 SE16      29.49F
SIOUX CITY     LGT RAIN  43  41  93 S14       29.50S FOG
SPENCER        LGT RAIN  40  37  89 SE17      29.54F
STORM LAKE     MIX PCPN  39  39 100 S17       29.55S VSB 1
$$

ABBREVIATIONS USED IN REMARKS
   TC - TEMPERATURE IN CELSIUS
  WCI - WIND CHILL INDEX
   HX - HEAT INDEX
  VSB - VISIBILITY



USA.gov is the U.S. government's official web portal to all federal, state and local government web resources and services.